TimeCST,TemperatureF,Dew PointF,Humidity,Sea Level PressureIn,VisibilityMPH,Wind Direction,Wind SpeedMPH,Gust SpeedMPH,PrecipitationIn,Events,Conditions,WindDirDegrees,DateUTC
12:53 AM,66.9,61.0,81,30.09,10.0,SE,9.2,-,N/A,,Mostly Cloudy,130,2011-11-07 06:53:00
1:53 AM,66.0,61.0,84,30.09,10.0,SE,9.2,-,N/A,,Scattered Clouds,130,2011-11-07 07:53:00
2:53 AM,64.0,61.0,90,30.08,10.0,ESE,5.8,-,N/A,,Scattered Clouds,120,2011-11-07 08:53:00
3:02 AM,64.4,60.8,88,30.09,10.0,SE,5.8,-,N/A,,Mostly Cloudy,130,2011-11-07 09:02:00
3:41 AM,64.4,62.6,94,30.09,10.0,ESE,9.2,-,N/A,,Overcast,120,2011-11-07 09:41:00
3:53 AM,66.0,62.1,87,30.09,10.0,ESE,10.4,-,N/A,,Overcast,120,2011-11-07 09:53:00
4:53 AM,66.0,62.1,87,30.10,10.0,ESE,9.2,-,N/A,,Overcast,120,2011-11-07 10:53:00
5:53 AM,66.0,63.0,90,30.11,9.0,ESE,8.1,-,N/A,,Overcast,110,2011-11-07 11:53:00
6:53 AM,66.2,62.6,88,30.11,8.0,ESE,8.1,-,N/A,,Overcast,110,2011-11-07 12:53:00
7:53 AM,66.0,63.0,90,30.11,7.0,ESE,9.2,-,N/A,,Overcast,110,2011-11-07 13:53:00
8:53 AM,68.0,63.0,84,30.11,10.0,SE,10.4,-,N/A,,Overcast,130,2011-11-07 14:53:00
9:53 AM,70.0,64.0,81,30.12,10.0,SE,10.4,-,N/A,,Overcast,140,2011-11-07 15:53:00
10:36 AM,71.6,64.4,78,30.12,10.0,SE,10.4,-,N/A,,Overcast,140,2011-11-07 16:36:00
10:53 AM,72.0,64.0,76,30.10,10.0,SE,10.4,-,N/A,,Overcast,140,2011-11-07 16:53:00
11:53 AM,75.0,64.0,69,30.08,10.0,SE,12.7,-,N/A,,Overcast,140,2011-11-07 17:53:00
12:35 PM,77.0,64.4,65,30.06,10.0,SSE,9.2,-,N/A,,Mostly Cloudy,150,2011-11-07 18:35:00
12:42 PM,77.0,64.4,65,30.05,10.0,SSE,12.7,-,N/A,,Overcast,150,2011-11-07 18:42:00
12:50 PM,78.8,64.4,61,30.05,10.0,SSE,12.7,-,N/A,,Mostly Cloudy,150,2011-11-07 18:50:00
12:53 PM,80.1,64.0,58,30.04,10.0,SSE,12.7,-,N/A,,Mostly Cloudy,150,2011-11-07 18:53:00
1:53 PM,77.0,63.0,62,30.02,10.0,SSE,10.4,-,N/A,,Overcast,160,2011-11-07 19:53:00
2:53 PM,80.1,64.0,58,29.99,10.0,SE,15.0,23.0,N/A,,Mostly Cloudy,130,2011-11-07 20:53:00
3:53 PM,78.1,64.0,62,29.97,10.0,SE,15.0,-,N/A,,Scattered Clouds,130,2011-11-07 21:53:00
4:53 PM,77.0,64.4,65,30.00,10.0,SE,10.4,20.7,N/A,,Overcast,140,2011-11-07 22:53:00
5:53 PM,75.0,64.0,69,29.99,10.0,SE,12.7,21.9,N/A,,Mostly Cloudy,130,2011-11-07 23:53:00
6:53 PM,72.0,64.0,76,29.99,10.0,SE,13.8,21.9,N/A,,Partly Cloudy,130,2011-11-08 00:53:00
7:53 PM,71.6,62.6,73,30.01,10.0,SE,12.7,-,N/A,,Mostly Cloudy,130,2011-11-08 01:53:00
8:48 PM,71.6,64.4,78,30.02,10.0,SSE,11.5,-,N/A,,Overcast,150,2011-11-08 02:48:00
8:53 PM,72.0,64.0,76,30.02,10.0,SE,10.4,-,0.00,Rain,Light Rain,140,2011-11-08 02:53:00
9:53 PM,71.1,64.9,81,30.01,10.0,SSE,10.4,-,0.00,Rain,Light Rain,150,2011-11-08 03:53:00
10:53 PM,72.0,64.9,78,30.00,10.0,SE,12.7,-,0.00,,Overcast,130,2011-11-08 04:53:00
11:53 PM,71.1,64.9,81,29.96,10.0,SE,16.1,-,N/A,,Overcast,140,2011-11-08 05:53:00